Time,TemperatureF,DewpointF,PressureIn,WindDirection,WindDirectionDegrees,WindSpeedMPH,WindSpeedGustMPH,Humidity,HourlyPrecipIn,Conditions,Clouds,dailyrainin,SoftwareType,DateUTC
2013-03-03 20:45:00,38.1,25.1,29.85,ESE,112,3.8,3.8,59,0.00,,---,0.00,VWS V14.00,2013-03-04 02:45:00,
2013-03-03 20:46:00,38.1,25.1,29.85,South,180,4.4,4.4,59,0.00,,---,0.00,VWS V14.00,2013-03-04 02:46:00,
2013-03-03 20:47:00,38.1,25.1,29.85,SSE,158,4.1,4.1,59,0.00,,---,0.00,VWS V14.00,2013-03-04 02:47:00,
2013-03-03 20:52:00,38.1,25.5,29.85,SE,135,4.9,4.9,60,0.00,,---,0.00,VWS V14.00,2013-03-04 02:52:00,
2013-03-03 20:58:00,38.1,25.1,29.85,SSE,158,4.9,4.9,59,0.00,,---,0.00,VWS V14.00,2013-03-04 02:58:00,
2013-03-03 21:03:00,38.1,25.5,29.85,SE,135,4.9,4.9,60,0.00,,---,0.00,VWS V14.00,2013-03-04 03:03:00,
2013-03-03 21:04:00,38.3,25.6,29.85,SSW,202,4.9,4.9,60,0.00,,---,0.00,VWS V14.00,2013-03-04 03:04:00,
2013-03-03 21:09:00,38.3,25.6,29.85,SSE,158,5.8,5.8,60,0.00,,---,0.00,VWS V14.00,2013-03-04 03:09:00,
2013-03-03 21:14:00,38.5,25.4,29.85,SE,135,5.2,6.0,59,0.00,,---,0.00,VWS V14.00,2013-03-04 03:14:00,
2013-03-03 21:20:00,38.3,25.6,29.85,SSE,158,5.2,5.2,60,0.00,,---,0.00,VWS V14.00,2013-03-04 03:20:00,
2013-03-03 21:26:00,38.1,25.5,29.85,South,180,5.5,5.5,60,0.00,,---,0.00,VWS V14.00,2013-03-04 03:26:00,
2013-03-03 21:32:00,37.9,25.3,29.82,SSE,158,5.2,5.2,60,0.00,,---,0.00,VWS V14.00,2013-03-04 03:32:00,
2013-03-03 21:38:00,37.8,25.1,29.82,SSW,202,4.4,4.4,60,0.00,,---,0.00,VWS V14.00,2013-03-04 03:38:00,
2013-03-03 21:44:00,37.6,25.0,29.82,SSW,202,4.1,4.7,60,0.00,,---,0.00,VWS V14.00,2013-03-04 03:44:00,
2013-03-03 21:50:00,37.6,25.0,29.82,SE,135,5.8,5.8,60,0.00,,---,0.00,VWS V14.00,2013-03-04 03:50:00,
2013-03-03 21:55:00,37.6,25.0,29.82,SSE,158,6.0,6.0,60,0.00,,---,0.00,VWS V14.00,2013-03-04 03:55:00,
2013-03-03 22:00:00,37.4,24.8,29.82,SSE,158,5.8,5.8,60,0.00,,---,0.00,VWS V14.00,2013-03-04 04:00:00,
2013-03-03 22:05:00,37.4,25.2,29.82,SSE,158,4.6,4.6,61,0.00,,---,0.00,VWS V14.00,2013-03-04 04:05:00,
2013-03-03 22:10:00,37.2,25.0,29.82,South,180,4.1,4.7,61,0.00,,---,0.00,VWS V14.00,2013-03-04 04:10:00,
2013-03-03 22:16:00,37.0,24.9,29.85,SSE,158,2.7,2.7,61,0.00,,---,0.00,VWS V14.00,2013-03-04 04:16:00,
2013-03-03 22:22:00,36.9,24.7,29.85,South,180,4.1,4.1,61,0.00,,---,0.00,VWS V14.00,2013-03-04 04:22:00,
2013-03-03 22:27:00,36.7,24.9,29.85,South,180,5.2,5.2,62,0.00,,---,0.00,VWS V14.00,2013-03-04 04:27:00,
2013-03-03 22:33:00,36.5,24.7,29.82,SE,135,4.9,4.9,62,0.00,,---,0.00,VWS V14.00,2013-03-04 04:33:00,
2013-03-03 22:38:00,36.3,25.0,29.82,SSE,158,3.5,3.5,63,0.00,,---,0.00,VWS V14.00,2013-03-04 04:38:00,
2013-03-03 22:44:00,36.1,24.8,29.82,SSE,158,4.1,4.1,63,0.00,,---,0.00,VWS V14.00,2013-03-04 04:44:00,
2013-03-03 22:50:00,36.1,25.1,29.82,South,180,4.1,4.1,64,0.00,,---,0.00,VWS V14.00,2013-03-04 04:50:00,
2013-03-03 22:56:00,36.1,25.1,29.82,SE,135,3.0,3.0,64,0.00,,---,0.00,VWS V14.00,2013-03-04 04:56:00,
2013-03-03 23:00:00,36.1,25.1,29.82,SSE,158,4.1,4.1,64,0.00,,---,0.00,VWS V14.00,2013-03-04 05:00:00,
2013-03-03 23:02:00,36.3,25.7,29.82,South,180,5.2,5.2,65,0.00,,---,0.00,VWS V14.00,2013-03-04 05:02:00,
2013-03-03 23:03:00,36.3,25.7,29.82,South,180,4.6,4.6,65,0.00,,---,0.00,VWS V14.00,2013-03-04 05:03:00,
2013-03-03 23:09:00,36.3,25.7,29.82,SSE,158,3.0,3.0,65,0.00,,---,0.00,VWS V14.00,2013-03-04 05:09:00,
2013-03-03 23:15:00,36.1,25.5,29.82,SE,135,2.1,2.1,65,0.00,,---,0.00,VWS V14.00,2013-03-04 05:15:00,
2013-03-03 23:20:00,36.1,25.5,29.82,SSE,158,2.4,2.4,65,0.00,,---,0.00,VWS V14.00,2013-03-04 05:20:00,
2013-03-03 23:26:00,36.0,25.7,29.82,ESE,112,2.4,2.4,66,0.00,,---,0.00,VWS V14.00,2013-03-04 05:26:00,
2013-03-03 23:32:00,36.0,25.7,29.82,ESE,112,3.0,3.0,66,0.00,,---,0.00,VWS V14.00,2013-03-04 05:32:00,
2013-03-03 23:37:00,36.1,25.9,29.82,ESE,112,4.4,4.4,66,0.00,,---,0.00,VWS V14.00,2013-03-04 05:37:00,
2013-03-03 23:43:00,36.3,26.1,29.82,ESE,112,5.2,5.2,66,0.00,,---,0.00,VWS V14.00,2013-03-04 05:43:00,
2013-03-03 23:48:00,36.5,26.2,29.82,SE,135,5.8,5.8,66,0.00,,---,0.00,VWS V14.00,2013-03-04 05:48:00,
2013-03-03 23:54:00,36.5,26.2,29.82,SE,135,4.6,4.6,66,0.00,,---,0.00,VWS V14.00,2013-03-04 05:54:00,